User: anonymous   Login
Location: Anjeux
(47.8815°N, 6.2076°E)
Time: 17:09:49
(UTC+00:00)
Language:

ALOS - Orbit

View from above orbital plane
View from above orbital plane
View from above satellite
View from above satellite

Ground track
Ground track

The orbit data is extracted from the following two-line orbital elements,

1 28931U 06002A   21125.94339569  .00000177  00000-0  43367-4 0  9992
2 28931  97.8849 102.5545 0001816 103.3528 256.7881 14.62832560814849
Epoch (UTC): 05 May 2021 22:38:29
Eccentricity: 0.0001816
inclination: 97.8849°
perigee height: 683 km
apogee height: 685 km
right ascension of ascending node: 102.5545°
argument of perigee: 103.3528°
revolutions per day: 14.62832560
mean anomaly at epoch: 256.7881°
orbit number at epoch: 81484

The dashed part of the orbit path shows where the satellite is in the earth's shadow,  

DLR